When you browse on this site, cookies collect data to enhance your experience and personalize the content and advertising you see.
Visit our Privacy Policy to learn more. By continuing to use the site, you agree to this use of cookies and data.
  • en Suisse
  • Liste des pays
  • À 7 jours
  • Température de l'eau
  • Carte météo
  • Widgets météo
  • user-avatar
    Se connecter

    Météo par heure à Kaprun

    Ce jour, 2 Juin, Mardi

    Heure Température Précipitation Vent Pression Humidité
    00:00 +3°C° 0 mm 1 m/s 597 mmHg 95%
    01:00 +2°C° 0 mm 1 m/s 597 mmHg 95%
    02:00 +2°C° 0 mm 1 m/s 596 mmHg 93%
    03:00 +2°C° 0 mm 1 m/s 596 mmHg 92%
    04:00 +2°C° 0 mm 1 m/s 596 mmHg 90%
    05:00 +4°C° 0 mm 1 m/s 597 mmHg 85%
    06:00 +6°C° 0 mm 1 m/s 598 mmHg 79%
    07:00 +8°C° 0 mm 1 m/s 598 mmHg 74%
    08:00 +8°C° 0 mm 2 m/s 599 mmHg 66%
    09:00 +10°C° 0 mm 2 m/s 600 mmHg 58%
    10:00 +11°C° 0 mm 3 m/s 600 mmHg 50%
    11:00 +11°C° 0 mm 3 m/s 600 mmHg 49%
    12:00 +12°C° 0 mm 3 m/s 600 mmHg 47%
    13:00 +12°C° 0 mm 3 m/s 600 mmHg 45%
    14:00 +12°C° 0.2 mm 3 m/s 599 mmHg 47%
    15:00 +12°C° 0.2 mm 3 m/s 599 mmHg 48%
    16:00 +11°C° 0.2 mm 3 m/s 598 mmHg 50%
    17:00 +10°C° 0.1 mm 3 m/s 598 mmHg 58%
    18:00 +9°C° 0.1 mm 2 m/s 597 mmHg 66%
    19:00 +7°C° 0.1 mm 2 m/s 596 mmHg 74%
    20:00 +5°C° 0 mm 2 m/s 595 mmHg 80%
    21:00 +5°C° 0 mm 1 m/s 595 mmHg 85%
    22:00 +3°C° 0 mm 1 m/s 594 mmHg 91%
    23:00 +2°C° 0 mm 1 m/s 594 mmHg 89%

    Demain, 3 Juin, Mercredi

    Heure Température Précipitation Vent Pression Humidité
    00:00 +2°C° 0 mm 1 m/s 594 mmHg 86%
    01:00 +2°C° 0 mm 1 m/s 593 mmHg 84%
    02:00 +2°C° 0 mm 1 m/s 593 mmHg 81%
    03:00 +2°C° 0 mm 1 m/s 593 mmHg 77%
    04:00 +1°C° 0 mm 1 m/s 592 mmHg 74%
    05:00 +4°C° 0 mm 1 m/s 593 mmHg 66%
    06:00 +5°C° 0 mm 0 m/s 594 mmHg 58%
    07:00 +8°C° 0 mm 0 m/s 595 mmHg 50%
    08:00 +9°C° 0 mm 0 m/s 595 mmHg 45%
    09:00 +12°C° 0 mm 1 m/s 596 mmHg 40%
    10:00 +14°C° 0 mm 1 m/s 596 mmHg 34%
    11:00 +14°C° 0 mm 1 m/s 596 mmHg 34%
    12:00 +15°C° 0 mm 1 m/s 596 mmHg 33%
    13:00 +15°C° 0 mm 2 m/s 595 mmHg 32%
    14:00 +15°C° 0.2 mm 1 m/s 595 mmHg 38%
    15:00 +14°C° 0.2 mm 1 m/s 594 mmHg 44%
    16:00 +13°C° 0.2 mm 1 m/s 593 mmHg 49%
    17:00 +12°C° 0.3 mm 1 m/s 593 mmHg 60%
    18:00 +10°C° 0.3 mm 1 m/s 592 mmHg 70%
    19:00 +9°C° 0.3 mm 1 m/s 591 mmHg 80%
    20:00 +7°C° 0 mm 2 m/s 591 mmHg 83%
    21:00 +5°C° 0 mm 2 m/s 590 mmHg 85%
    22:00 +4°C° 0 mm 2 m/s 590 mmHg 87%
    23:00 +4°C° 0 mm 2 m/s 589 mmHg 88%

    Après-demain, 4 Juin, Jeudi

    Heure Température Précipitation Vent Pression Humidité
    00:00 +4°C° 0 mm 2 m/s 589 mmHg 89%
    01:00 +4°C° 0 mm 2 m/s 589 mmHg 90%
    02:00 +4°C° 0 mm 2 m/s 589 mmHg 90%
    03:00 +4°C° 0 mm 2 m/s 588 mmHg 90%
    04:00 +4°C° 0 mm 2 m/s 588 mmHg 91%
    05:00 +5°C° 0 mm 2 m/s 588 mmHg 88%
    06:00 +7°C° 0 mm 1 m/s 589 mmHg 85%
    07:00 +8°C° 0 mm 1 m/s 589 mmHg 82%
    08:00 +8°C° 0.4 mm 1 m/s 589 mmHg 84%
    09:00 +8°C° 0.4 mm 1 m/s 589 mmHg 86%
    10:00 +8°C° 0.4 mm 1 m/s 589 mmHg 88%
    11:00 +8°C° 0.3 mm 1 m/s 588 mmHg 88%
    12:00 +8°C° 0.3 mm 1 m/s 588 mmHg 89%
    13:00 +8°C° 0.3 mm 1 m/s 588 mmHg 89%
    14:00 +8°C° 0.3 mm 2 m/s 587 mmHg 87%
    15:00 +8°C° 0.3 mm 2 m/s 587 mmHg 85%
    16:00 +8°C° 0.3 mm 2 m/s 587 mmHg 83%
    17:00 +8°C° 0.3 mm 2 m/s 587 mmHg 86%
    18:00 +7°C° 0.3 mm 2 m/s 586 mmHg 89%
    19:00 +6°C° 0.3 mm 2 m/s 586 mmHg 92%
    20:00 +6°C° 1 mm 2 m/s 586 mmHg 94%
    21:00 +5°C° 1 mm 2 m/s 586 mmHg 96%
    22:00 +5°C° 1 mm 1 m/s 585 mmHg 97%
    23:00 +5°C° 1.8 mm 1 m/s 585 mmHg 98%

    5 Juin, Vendredi

    Heure Température Précipitation Vent Pression Humidité
    00:00 +4°C° 1.8 mm 1 m/s 584 mmHg 98%
    01:00 +4°C° 1.8 mm 1 m/s 584 mmHg 99%
    02:00 +3°C° 3.9 mm 1 m/s 583 mmHg 99%
    03:00 +1°C° 3.9 mm 2 m/s 583 mmHg 98%
    04:00 +1°C° 3.9 mm 2 m/s 582 mmHg 98%
    05:00 -1°C° 3.5 mm 2 m/s 582 mmHg 99%
    06:00 +1°C° 3.5 mm 1 m/s 583 mmHg 99%
    07:00 +1°C° 3.5 mm 1 m/s 583 mmHg 99%
    08:00 -1°C° 1.9 mm 2 m/s 583 mmHg 99%
    09:00 -1°C° 1.9 mm 2 m/s 584 mmHg 99%
    10:00 -1°C° 1.9 mm 2 m/s 584 mmHg 99%
    11:00 -1°C° 1.3 mm 2 m/s 584 mmHg 99%
    12:00 -1°C° 1.3 mm 3 m/s 584 mmHg 99%
    13:00 -2°C° 1.3 mm 3 m/s 584 mmHg 98%
    14:00 -2°C° 1.1 mm 3 m/s 585 mmHg 98%
    15:00 -2°C° 1.1 mm 3 m/s 585 mmHg 97%
    16:00 -2°C° 1.1 mm 3 m/s 585 mmHg 96%
    17:00 -2°C° 0.4 mm 2 m/s 586 mmHg 95%
    18:00 -2°C° 0.4 mm 2 m/s 586 mmHg 94%
    19:00 -2°C° 0.4 mm 2 m/s 586 mmHg 94%
    20:00 -3°C° 0.1 mm 2 m/s 586 mmHg 92%
    21:00 -4°C° 0.1 mm 2 m/s 587 mmHg 89%
    22:00 -4°C° 0.1 mm 2 m/s 587 mmHg 87%
    23:00 -5°C° 0 mm 2 m/s 587 mmHg 87%

    6 Juin, Samedi

    Heure Température Précipitation Vent Pression Humidité
    00:00 -5°C° 0 mm 2 m/s 587 mmHg 87%
    01:00 -6°C° 0 mm 2 m/s 587 mmHg 87%
    02:00 -5°C° 0 mm 2 m/s 588 mmHg 89%
    03:00 -5°C° 0 mm 2 m/s 588 mmHg 91%
    04:00 -5°C° 0 mm 2 m/s 589 mmHg 94%
    05:00 -1°C° 0 mm 1 m/s 590 mmHg 92%
    06:00 0°C° 0 mm 1 m/s 590 mmHg 90%
    07:00 +2°C° 0 mm 1 m/s 591 mmHg 88%
    08:00 +3°C° 0 mm 1 m/s 592 mmHg 83%
    09:00 +5°C° 0 mm 1 m/s 593 mmHg 79%
    10:00 +7°C° 0 mm 1 m/s 594 mmHg 75%
    11:00 +7°C° 0 mm 1 m/s 594 mmHg 73%
    12:00 +8°C° 0 mm 1 m/s 594 mmHg 71%
    13:00 +9°C° 0 mm 1 m/s 594 mmHg 69%
    14:00 +9°C° 0 mm 1 m/s 594 mmHg 70%
    15:00 +8°C° 0 mm 2 m/s 594 mmHg 70%
    16:00 +8°C° 0 mm 2 m/s 594 mmHg 71%
    17:00 +7°C° 0 mm 2 m/s 593 mmHg 77%
    18:00 +6°C° 0 mm 2 m/s 593 mmHg 83%
    19:00 +5°C° 0 mm 2 m/s 593 mmHg 89%
    20:00 +4°C° 0 mm 2 m/s 593 mmHg 91%
    21:00 +3°C° 0 mm 2 m/s 593 mmHg 93%
    22:00 +2°C° 0 mm 2 m/s 592 mmHg 95%
    23:00 +2°C° 0 mm 2 m/s 592 mmHg 95%

    7 Juin, Dimanche

    Heure Température Précipitation Vent Pression Humidité
    00:00 +2°C° 0 mm 2 m/s 592 mmHg 95%
    01:00 +2°C° 0 mm 2 m/s 592 mmHg 95%
    02:00 +2°C° 0 mm 2 m/s 592 mmHg 95%
    03:00 +2°C° 0 mm 2 m/s 592 mmHg 94%
    04:00 +2°C° 0 mm 2 m/s 592 mmHg 94%
    05:00 +3°C° 0 mm 2 m/s 592 mmHg 91%
    06:00 +4°C° 0 mm 2 m/s 592 mmHg 89%
    07:00 +5°C° 0 mm 2 m/s 593 mmHg 86%
    08:00 +6°C° 0 mm 2 m/s 593 mmHg 82%
    09:00 +8°C° 0 mm 2 m/s 594 mmHg 77%
    10:00 +9°C° 0 mm 2 m/s 595 mmHg 73%
    11:00 +9°C° 0.1 mm 2 m/s 595 mmHg 74%
    12:00 +10°C° 0.1 mm 2 m/s 595 mmHg 75%
    13:00 +10°C° 0.1 mm 2 m/s 595 mmHg 76%
    14:00 +9°C° 0.5 mm 2 m/s 595 mmHg 80%
    15:00 +9°C° 0.5 mm 2 m/s 594 mmHg 85%
    16:00 +8°C° 0.5 mm 2 m/s 594 mmHg 89%
    17:00 +8°C° 0.5 mm 1 m/s 594 mmHg 92%
    18:00 +7°C° 0.5 mm 1 m/s 594 mmHg 95%
    19:00 +7°C° 0.5 mm 1 m/s 594 mmHg 97%
    20:00 +6°C° 0.6 mm 1 m/s 594 mmHg 98%
    21:00 +5°C° 0.6 mm 1 m/s 594 mmHg 99%
    22:00 +5°C° 0.6 mm 1 m/s 594 mmHg 99%
    23:00 +5°C° 0.4 mm 1 m/s 594 mmHg 99%
    Voir plus